Flag for Germany Weather past 2 weeks in Schweinfurt, Bavaria, Germany

Now
51 °F

Passing clouds.


Feels Like: 51 °F
Forecast: 46 / 71 °F
Wind: 2 mph from Northeast

Location: Wuerzburg


UV Index: 3 (Moderate)

Visibility: 6 mi


Pressure: 29.91 "Hg

Humidity: 92%

Dew point: 49 °F

Location of SchweinfurtLocation

Historic Weather in Schweinfurt

°F

Schweinfurt temperature yesterday

Maximum temperature yesterday: 75 °F (at 4:00 PM)
Minimum temperature yesterday: 47 °F (at 6:00 AM)
Average temperature yesterday: 62 °F

Past Weeks' High & Low Weather Summary

 TemperatureHumidityPressure
High75 °F (Apr 24, 4:00 PM)100% (Apr 19, 6:00 AM)30.42 "Hg (Apr 19, 6:00 AM)
Low33 °F (Apr 17, 7:00 AM)28% (Apr 17, 5:00 PM)29.59 "Hg (Apr 21, 5:00 PM)
Average52 °F66%30.01 "Hg
* Reported Apr 10 5:00 AM — Apr 25 5:00 AM, Schweinfurt, Weather by CustomWeather, © 2014

Note: Actual official high and low records may vary slightly from our data, if they occured in-between our weather recording intervals... More about our weather records

Advertising

Historic Weather Conditions — Data for Previous 24 hours

 ConditionsComfort  
Time TempWeatherWind HumidityBarometerVisibility
5:00 AM
Apr 25
51 °FPassing clouds.2 mph92%29.91 "Hg6 mi
4:00 AM53 °FPassing clouds.2 mph90%29.92 "Hg7 mi
3:00 AM54 °FPassing clouds.3 mph84%29.93 "Hg7 mi
2:00 AM56 °FClear.6 mph83%29.94 "Hg7 mi
1:00 AM56 °FClear.2 mph79%29.96 "Hg11 mi
12:00 AM59 °FClear.5 mph71%29.95 "Hg12 mi
11:00 PM
Apr 24
61 °FClear.8 mph65%29.95 "Hg16 mi
10:00 PM63 °FPassing clouds.8 mph55%29.95 "Hg22 mi
9:00 PM65 °FPassing clouds.7 mph46%29.94 "Hg31 mi
8:00 PM68 °FScattered clouds.5 mph38%29.93 "Hg37 mi
7:00 PM72 °FScattered clouds.3 mph32%29.93 "Hg37 mi
6:00 PM72 °FPassing clouds.6 mph32%29.94 "Hg37 mi
5:00 PM74 °FPassing clouds.6 mph30%29.95 "Hg37 mi
4:00 PM75 °FPassing clouds.3 mph29%29.97 "Hg31 mi
3:00 PM74 °FPassing clouds.3 mph32%29.99 "Hg34 mi
2:00 PM72 °FPassing clouds.5 mph35%30.01 "Hg37 mi
1:00 PM70 °FPassing clouds.2 mph36%30.03 "Hg28 mi
12:00 PM70 °FPassing clouds.5 mph48%30.06 "Hg19 mi
11:00 AM66 °FPassing clouds.3 mph58%30.07 "Hg13 mi
10:00 AM61 °FPassing clouds.1 mph68%30.09 "Hg8 mi
9:00 AM54 °FPassing clouds.1 mph80%30.11 "Hg12 mi
8:00 AM52 °FPassing clouds.1 mph82%30.11 "Hg12 mi
7:00 AM47 °FPassing clouds.1 mph88%30.11 "Hg16 mi
6:00 AM47 °FClear.2 mph88%30.11 "Hg16 mi
Weather by CustomWeather, © 2014

See weather overview